Home > Weather > Fort Smith > Past weeks

Flag for Canada Weather for the Past 2 Weeks in Fort Smith, Northwest Territories, Canada

Now
43 °F

Passing clouds.


Feels Like: 37 °F
Forecast: 44 / 56 °F
Wind: 10 mph from West

Location: Fort Smith

Current Time: May 5, 2016 at 8:31:07 AM

Latest Report: May 5, 2016 at 7:00 AM


Visibility: 15 mi

Pressure: 29.82 "Hg

Humidity: 81%

Dew Point: 37 °F

Location of Fort SmithLocation

Historic Weather in Fort Smith — Graph

°F

Fort Smith Temperature Yesterday

Maximum temperature yesterday: 81 °F (at 3:00 PM)
Minimum temperature yesterday: 46 °F (at 5:00 AM)
Average temperature yesterday: 64 °F

High & Low Weather Summary for the Past Weeks

 TemperatureHumidityPressure
High81 °F (May 3, 5:00 PM)100% (Apr 26, 4:00 AM)30.54 "Hg (Apr 26, 4:00 AM)
Low12 °F (Apr 20, 7:00 AM)18% (May 1, 2:00 PM)29.52 "Hg (May 4, 9:00 PM)
Average44 °F58%30.08 "Hg
* Reported Apr 20 7:00 AM — May 5 7:00 AM, Fort Smith, Weather by CustomWeather, © 2016

Note: Actual official high and low records may vary slightly from our data, if they occured in-between our weather recording intervals... More about our weather records

Advertising

Fort Smith Weather History for the Previous 24 Hours

Scroll right to see more
 ConditionsComfort  
Time TempWeatherWind HumidityBarometerVisibility
7:00 AM
Thu, May 5
43 °FPassing clouds.10 mph81%29.82 "Hg15 mi
6:00 AM43 °FPassing clouds.8 mph81%29.79 "Hg15 mi
5:00 AM43 °FPassing clouds.3 mph81%29.78 "Hg15 mi
4:00 AM46 °FPassing clouds.7 mph71%29.76 "Hg15 mi
3:00 AM48 °FPassing clouds.12 mph66%29.74 "Hg15 mi
2:00 AM52 °FPassing clouds.12 mph58%29.71 "Hg15 mi
1:00 AM54 °FPassing clouds.13 mph54%29.70 "Hg15 mi
12:00 AM57 °FPassing clouds.12 mph59%29.68 "Hg15 mi
11:00 PM
Wed, May 4
61 °FPartly cloudy.12 mph59%29.64 "Hg15 mi
10:00 PM64 °FBroken clouds.14 mph49%29.59 "Hg15 mi
9:00 PM70 °FSprinkles. Broken clouds.6 mph35%29.52 "Hg15 mi
8:00 PM73 °FBroken clouds.10 mph31%29.53 "Hg15 mi
7:00 PM73 °FMostly cloudy.3 mph38%29.52 "Hg15 mi
6:00 PM77 °FMostly cloudy.3 mph30%29.52 "Hg15 mi
5:00 PM79 °FMostly cloudy.7 mph28%29.52 "Hg15 mi
4:00 PM77 °FMostly cloudy.8 mph30%29.53 "Hg15 mi
3:00 PM81 °FMostly cloudy.13 mph30%29.52 "Hg15 mi
2:00 PM79 °FMostly cloudy.10 mph30%29.52 "Hg15 mi
1:00 PM79 °FPartly sunny.10 mph30%29.53 "Hg15 mi
12:00 PM79 °FBroken clouds.10 mph30%29.54 "Hg15 mi
11:00 AM75 °FPartly sunny.7 mph34%29.56 "Hg15 mi
10:00 AM72 °FBroken clouds.9 mph36%29.58 "Hg15 mi
9:00 AM63 °FPartly sunny.7 mph45%29.61 "Hg15 mi
8:00 AM52 °FBroken clouds.2 mph67%29.63 "Hg15 mi
Weather by CustomWeather, © 2016

See weather overviewHow to use our weather pages